This is the latest recevied weather packets stored in our database for station/object WZ9ZZZ-1. If no packets are shown the sender has not sent any weather packets the latest 10 day(s).
| Time | Temp. | Humidity | Pressure | Rain* | Wind** | Luminosity | Snow |
|---|---|---|---|---|---|---|---|
| 1778100575 | 28.89° C | 81% | 1012.4 hPa | 0 mm | - | 225 W/m² | - |
| 1778100273 | 28.89° C | 81% | 1012.6 hPa | 0 mm | - | 220 W/m² | - |
| 1778099970 | 28.89° C | 81% | 1012.5 hPa | 0 mm | - | 286 W/m² | - |
| 1778099667 | 28.89° C | 82% | 1012.7 hPa | 0 mm | - | 435 W/m² | - |
| 1778099364 | 28.33° C | 82% | 1012.8 hPa | 0 mm | - | 426 W/m² | - |
| 1778099061 | 28.33° C | 82% | 1012.8 hPa | 0 mm | - | 332 W/m² | - |
| 1778098757 | 28.33° C | 84% | 1012.9 hPa | 0 mm | - | 499 W/m² | - |
| 1778098455 | 27.78° C | 84% | 1013 hPa | 0 mm | - | 297 W/m² | - |
| 1778098151 | 28.33° C | 84% | 1013.1 hPa | 0 mm | - | 134 W/m² | - |
| 1778097847 | 28.33° C | 84% | 1013 hPa | 0 mm | - | 159 W/m² | - |
| 1778097544 | 27.78° C | 84% | 1013.2 hPa | 0 mm | - | 173 W/m² | - |
| 1778097241 | 27.78° C | 85% | 1013.1 hPa | 0 mm | - | 178 W/m² | - |
| 1778096938 | 27.78° C | 85% | 1013.1 hPa | 0 mm | - | 213 W/m² | - |
| 1778096635 | 27.78° C | 85% | 1013.4 hPa | 0 mm | - | 157 W/m² | - |
| 1778096332 | 28.33° C | 83% | 1013.4 hPa | 0 mm | - | 220 W/m² | - |
| 1778096029 | 28.33° C | 85% | 1013.3 hPa | 0 mm | - | 324 W/m² | - |
| 1778095725 | 28.33° C | 83% | 1013.3 hPa | 0 mm | - | 161 W/m² | - |
| 1778095422 | 28.33° C | 83% | 1013.3 hPa | 0 mm | - | 232 W/m² | - |
| 1778095119 | 28.33° C | 84% | 1013.5 hPa | 0 mm | - | 196 W/m² | - |
| 1778094815 | 28.33° C | 85% | 1013.6 hPa | 0 mm | - | 215 W/m² | - |
| 1778094513 | 28.33° C | 85% | 1013.5 hPa | 0 mm | - | 272 W/m² | - |
| 1778094209 | 28.33° C | 86% | 1013.3 hPa | 0 mm | - | 283 W/m² | - |
| 1778093906 | 27.78° C | 87% | 1013.3 hPa | 0 mm | - | 294 W/m² | - |
| 1778093603 | 27.78° C | 86% | 1013.7 hPa | 0 mm | - | 212 W/m² | - |
| 1778093300 | 27.78° C | 86% | 1013.6 hPa | 0 mm | - | 163 W/m² | - |
* Rain latest hour (hover to see other rain measurements)
** Current wind speed in m/s (hover to see current wind gust speed)